User: anonymous   Login
Location: Unspecified
(0.0000°N, 0.0000°E)
Time: 16:08:46
(UTC+00:00)
Language:

CBERS-4 - Orbit

View from above orbital plane
View from above orbital plane
View from above satellite
View from above satellite

Ground track
Ground track

The orbit data is extracted from the following two-line orbital elements,

1 40336U 14079A   19081.50076006 -.00000007  00000-0  12425-4 0  9996
2 40336  98.3794 150.7804 0000949  82.0576 278.0719 14.35500344224701
Epoch (UTC): 22 March 2019 12:01:05
Eccentricity: 0.0000949
inclination: 98.3794°
perigee height: 773 km
apogee height: 774 km
right ascension of ascending node: 150.7804°
argument of perigee: 82.0576°
revolutions per day: 14.35500344
mean anomaly at epoch: 278.0719°
orbit number at epoch: 22470

The dashed part of the orbit path shows where the satellite is in the earth's shadow,  

DLR